Location: Albuquerque Trailhead
(34.7934°N, 106.3736°W)
Time: 10:08:49
(UTC+00:00)

Exosat Rocket - Pass Details

Date: 27 October 2021
Orbit: 759 x 2516 km, 72.3° (Epoch: 08 December)

Event Time Altitude Azimuth Distance (km) Brightness Sun altitude
Exits shadow 08:56:28 - 133° (SE) 4,290 7.5 -53.9°
Reaches altitude 10° 09:00:02 10° 114° (ESE) 3,772 7.2 -53.3°
Maximum altitude 09:05:01 15° 82° (E) 3,707 7.3 -52.4°
Drops below altitude 10° 09:10:45 10° 52° (NE) 4,513 7.9 -51.3°
Sets 09:16:35 0° 34° (NE) 5,827 8.5 -50.2°
